Погода в Мозыре

Погода в Мозыре : погода сейчас, прогноз погоды и архив. Всё, что Вы хотите узнать о погоде в Мозыре!

Хотите узнать прогноз погоды в Мозыре? Тогда Вам сюда: Погода в Мозыре

Поиск расширенной информации на нашем сайте:

Другие новости

Новости СМИ2

Главная страница сайта

Новости сайта

02.10.2013

Напоминаем, что на нашем новом сайте вы можете получить высокодетализированные прогнозы погоды по пунктам России, СНГ и мира (включающие важные для авиации метеовеличины, такие как направление и скорость ветра, видимость, явления погоды, количество и форма облачности, нижняя и верхняя граница облачности), а также ознакомиться с разнообразными материалами по авиационной метеорологии и подборкой полезных ссылок на эту тему.

Сайт Метеоцентр.Азия посвящён разработке технологий оптимизации авиаметеорологического обслуживания, включая проектирование и перспективное создание нескольких автоматизированных авиаметеорологических систем:
- система выпуска высокодетальных прогностических карт явлений погоды для нижнего воздушного пространства по России и ближнему зарубежью;
- система верификации прогнозов TAF (выпускаемых синоптиками официальных АМСГ РФ и ближнего зарубежья) и AUTOTAF (выпускаемых сайтом Метеоцентр.Азия) - выявление ошибок, онлайн-сопоставление с фактической погодой METAR, автоматическое внесение коррективов в прогнозы при резком отклонении фактической погоды от прогноза, подсчёт оправдываемости прогнозов по элементам и в целом;
- система обработки, анализа и отображения авиаметеорологической информации для применения провайдерами метеорологической информации.

Рекомендуем: http://kvartiry-posutochno55.ru/ не можешь снять у нас квартиру на сутки в омске.

Погода в Мозыре - сегодня

Время (UTC), дата Ветер
(°,м/с) 
Видим.   Явления Облачность Т
(°С)
Тd
(°С)
f(%) Тe
(°С)
Pmin
(гПа)
dP
(гПа)
Po
(мм)
O2
(г/м3)
Тmin Tmax R s Состояние
почвы
09 22.03.17 150 (ЮВ) 20000 м    3/0 средняя, верхняя 
[Ac trans|Cc]
+14.5 +7.8 64 +15  1014.5  -0.3  744  283           
12 22.03.17 120 (ЮВ) 20000 м    8/3 1000 м средняя 
[Cu med, cong|Ac und]
+17.5 +6.4 48 +18  1013.3  -0.9  743  280           
15 22.03.17 150 (ЮВ) 14000 м    8/6 1440 м средняя 
[Sc|Ac und]
+17.2 +7.4 52 +19  1012.6  -0.8  743  280           
18 22.03.17 300 (СЗ) 5000 м  слаб. ливневой дождь  10/8 210 м кучево-дожд., средняя 
[Cb cap|Ac As]
+11.5 +10.3 92 +13  1015.1  744  286    +18.4  0.7     
21 22.03.17 290 (З) 5{10}  9000 м  в посл. час ливневой дождь  10/8 300 м средняя 
[Frnb|Ac As]
+5.5 +4.3 92 +3  1018.8  3.1  747  294           
00 23.03.17 330 (СЗ) 10 км  {ливн. осадки}  10/10 210 м 
[Sc]
+4.1 +2.3 88 +2  1021.4  2.4  749  297           
03 23.03.17 350 (С) 8000 м  дымка  3/3 200 м средняя 
[Frnb|Ac trans]
+2.8 +1.8 93 +2  1023  1.5  750  299         
06 23.03.17 320 (СЗ) 15000 м    8/0 средняя 
[Ac trans]
+2.9 +1.1 88 +2  1025.1  2.1  751  299  +2       
09 23.03.17 020 (С) 20000 м    6/0 средняя, верхняя 
[Ac trans|Ci fib]
+6.7 +1.2 68 +7  1026  1.2  752  296           
12 23.03.17 010 (С) 20000 м    6/0 верхняя 
[Ci fib]
+10.4 -1.7 43 +11  1025.6  -0.2  752  292           
15 23.03.17 020 (С) 20000 м    4/0 верхняя 
[Cs]
+10.9 -1.9 41 +12  1024.6  -0.8  751  291           
18 23.03.17 090 (В) 10 км    3/0 средняя 
[Ac trans]
+8.8 -3.8 41 +9  1024.2  -0.6  751  294    +11.4       
21 23.03.17 050 (СВ) 10 км    10/0 средняя 
[Ac As]
+8.2 -3.3 44 +7  1023.5  -0.7  750  294           
00 24.03.17 070 (В) 10 км    10/6 1350 м средняя 
[Sc|Ac As]
+7.4 -3 48 +7  1021.6  -2  749  294           
03 24.03.17 040 (СВ) 8000 м  слаб. ливневой дождь  10/8 360 м кучево-дожд., средняя 
[Cb cap|Ac As]
+3.6 +2.6 93 +2  1019.3  -2.5  747  297         
06 24.03.17 130 (ЮВ) 5000 м  дымка{ливн. осадки}  10/8 100 м средняя 
[Frnb|Ac As]
+4.7 +4.2 97 +4  1017.8  -1.4  746  295  +3.5       
09 24.03.17 160 (Ю) 3100 м  дымка{ливн. осадки}  10/10 60 м 
[St]
+5.9 +5.7 99 +6  1017.3  -0.4  746  293           
12 24.03.17 290 (З) 5000 м  в посл. час морось{ливн. осадки, туман}  10/8 150 м средняя 
[Frnb|Ac As]
+5 +4.1 94 +4  1019.2  1.8  747  295           
15 24.03.17 320 (СЗ) 20000 м  {морось}  4/0 средняя, верхняя 
[Ac trans|Ci fib]
+6.8 +2.2 72 +6  1020.1  1.1  748  294      0.0     
18 24.03.17 280 (З) 10 км  {морось}  3/0 средняя 
[Ac trans]
+5 +2.3 83 +6  1022.1  1.7  749  296    +6.9  0.0     
21 24.03.17 300 (СЗ) 10 км    ясно 
+4 -0.9 70 +4  1023.6  1.4  750  298           
00 25.03.17 290 (З) 10 км    ясно 
+1.7 -4.1 65 1024.7  0.9  751  301           
03 25.03.17 260 (З) 10 км    ясно 
-1 -6.4 67 1024.9  -0.1  751  304           
06 25.03.17 270 (З) 20000 м    9/0 верхняя 
[Cs]
+0.8 -6.1 60 1024.3  -0.4  750  302  -1.9         
09 25.03.17 250 (З) 20000 м    10/0 средняя, верхняя 
[As trans|Cs]
+4.4 -8.9 37 +4  1022.9  -1.1  750  298           
Время (UTC), дата Ветер
(°,м/с) 
Видим.   Явления Облачность Т
(°С)
Тd
(°С)
f(%) Тe
(°С)
Pmin
(гПа)
dP
(гПа)
Po
(мм)
O2
(г/м3)
Тmin Tmax R s Состояние
почвы

Для получения пояснительной информации подведите курсор к названию столбца.

ПОГОДА в Мозыре - архив

Всё, что Вы хотите узнать о погоде в Мозыре - удобно и подробно!

Выберите нужную дату (начиная с 1 января 2015* года) и нажмите кнопку "Найти".
Будут отображены архивные сводки погоды по пункту Мозырь, начиная с указанной даты.


Отображать данные в формате CSV (для использования в таблицах Excel)


Внимание! Наш архив погоды предназначен исключительно для личного некоммерческого использования в познавательных целях. Если Вам необходимы официальные справки о состоянии погоды (для производственных, юридических, коммерческих и т.п. целей), обращайтесь в органы Росгидромета.

*Примечание: данная дата относится к архиву по метеостанциям СССР (Россия, СНГ, Балтия).
Архив по метеостанциям Зарубежной Европы и Азии (кроме Китая) хранится 10 дней, по другим регионам земного шара (Китай, Африка, Америка, Австралия, Океания) - 1 день.

Мозырь - район местоположения метеостанции


Название, широта, долгота, высота метеостанции:
Мозырь 51.9°ш. 29.2°д. 170 м над ур. моря [Беларусь]

Дополнительная информация

В oтличие oт бoльшинства пoгoдных сайтoв мы публикуем пoдрoбную метеoинфoрмацию в детальнoм прoфессиoнальнoм фoрмате.

Характеристики температуры и влажнoсти вoздуха измеряются на высoте 2 м в тени вдали oт зданий и деревьев.
Скoрoсть ветра измеряется на высoте 10 м (на урoвне рoста челoвека скoрoсть ветра ниже в 1.5-2 раза). Если метеoстанция нахoдится в гoрoде или в лесу, тo скoрoсть ветра занижена на 2-4 м/с пo сравнению с oткрытым местoм. Скoрoсть ветра над акватoриями крупных рек и oзёр, а также на вершинах хoлмoв на 2-5 м/с выше, чем в oбычных услoвиях.
Атмoсфернoе давление в разных тoчках местнoсти мoжет значительнo oтличаться oт давления на метеoстанции, в зависимoсти oт услoвий рельефа (при пoдъёме на 10 м давление пoнижается примернo на 1 мм рт.ст.).